User: anonymous   Login
Location: Florian��polis
(27.5949°S, 48.5482°W)
Time: 05:00:10
(UTC-03:00)
Language:

ISS - Orbit

View from above orbital plane
View from above orbital plane
View from above satellite
View from above satellite

Ground track
Ground track

The orbit data is extracted from the following two-line orbital elements,

1 25544U 98067A   22343.89954157  .00010808  00000-0  19813-3 0  9994
2 25544  51.6439 186.1317 0004103 138.7193 353.6536 15.49846833372438
Epoch (UTC): 09 December 2022 21:35:20
Eccentricity: 0.0004103
inclination: 51.6439°
perigee height: 414 km
apogee height: 420 km
right ascension of ascending node: 186.1317°
argument of perigee: 138.7193°
revolutions per day: 15.49846833
mean anomaly at epoch: 353.6536°
orbit number at epoch: 37243

The dashed part of the orbit path shows where the satellite is in the earth's shadow,  

DLR